Torna al catalogo

SL-24 DEB

AttivoSSO
NORAD 35689·DEBRIS·🇷🇺 Russia

Lanciato Jul 29, 2009 da Baikonur Cosmodrome

Loading…

Prossimi Passaggi (prossime 24 ore)

TLE

AggiornatoSource: Space-Track

Epoca: Sep 14, 2026, 13:03 UTC

1 35689U 09041J   26257.54433582  .00001297  00000-0  15559-3 0  9998
2 35689  97.6499  64.2957 0018617 336.5925  23.4441 14.85565556922355

Traccia SL-24 DEB in tempo reale con AllMySat

Download on the App Store